Find Starlink 38133

NORAD ID: 100216 Int'l Des: 2026-177 Owner: SPXS Country: US Constellation: starlink operational

現在のビュー

3D地球を読み込み中...

About Starlink 38133

Starlink 38133 (NORAD 100216) is a starlink constellation satellite launched Aug 4, 2026 by SPXS of US. with a mass of 575.00 kg.

次回通過

Passes for default location (London). Set your location on the main map for personalized predictions.

高度履歴

Loading altitude history...

軌道要素

1 A0216U 26177D 26235.64097041 .00138572 00000-0 91349-3 0 9996
2 A0216 97.2846 285.5041 0000935 97.0594 263.0778 15.75226361 3007
Epoch: Aug 23, 2026 • Age: 9 hours

現在のステータス

高度 351.8 km
遠地点 / 近地点 N/A
速度 7.70 km/s
衛星直下点 52.50°N, 67.26°W
打ち上げ日 Aug 4, 2026
運用期間 19 days
タイプ internet

技術仕様

分類 Payload
質量 575.00 kg
乾燥質量 530.00 kg
総質量 575.00 kg
長さ 0.30 m
直径 4.10 m
スパン 29.00 m
形状 Box + pan
製造者 SPXS
バスタイプ Starlink V2MO
フェーズステータス In Orbit
所有者/国 SPXS/US

Most Searched